Wind_Speed
4 11 7 3 11 10 5 4 5 3 6 12 10 10 7 4 4 7 2 6 5 7 4 2 3 3 3 2 3 3 3 4 4 5 5 6 7 6 6 6 7 7 5
7 4 9 5 4 8 2 4 4 2 3 9 5 6 6 2 6 10 8 4 5 7 6 3 2 2 1 1 1 2 3 3 3 3 3 4 4 5 6 7 7 6 4
13 8 10 7 8 9 4 2 4 8 11 10 2 5 3 6 6 2 6 2 3 6 9 5 6 4 2 1 2 4 5 5 4 3 3 3 4 6 6 6 5 4 3
12 13 9 10 7 4 4 9 7 9 11 9 7 3 5 4 7 11 3 4 6 1 7 2 4 4 3 2 3 3 4 5 5 4 3 3 5 6 6 6 6 5 3
14 16 8 13 8 4 8 7 6 11 7 8 7 9 14 9 7 8 7 3 3 6 3 4 6 2 1 3 5 4 3 4 5 4 5 4 4 5 6 6 6 4 3
9 13 7 11 7 8 7 7 3 5 9 12 13 11 13 2 1 2 5 8 3 3 3 3 6 10 6 2 4 4 3 4 3 4 4 4 4 4 4 4 4 5 5
12 14 7 8 9 7 9 9 6 8 8 8 11 19 13 8 7 5 3 3 2 4 2 7 11 6 3 3 5 4 1 2 3 2 3 3 3 3 4 4 4 5 5
11 14 8 7 6 7 5 6 8 9 7 6 5 11 9 9 5 8 4 8 6 8 6 9 10 8 3 1 2 4 3 2 2 3 2 1 1 2 3 4 5 6 6
17 15 12 11 7 10 7 8 4 5 6 6 5 2 4 3 12 8 5 4 9 6 6 3 5 0 8 7 7 2 4 3 2 3 3 3 2 3 4 5 5 6 6
13 11 15 12 13 6 7 3 3 8 7 7 7 5 10 6 6 9 10 9 2 7 3 7 7 18 11 11 9 7 2 1 2 5 5 4 4 4 4 5 5 6 6
14 14 14 14 13 12 5 7 11 8 6 6 10 10 6 10 11 15 14 11 13 7 6 10 5 7 10 18 5 2 2 0 2 6 6 5 4 4 4 5 5 5 6
14 13 14 14 13 13 13 11 9 12 12 13 14 11 6 9 15 16 18 16 16 12 11 5 4 5 1 5 1 4 4 1 2 6 6 6 4 3 4 4 5 6 6
18 17 15 13 12 13 11 12 12 11 13 14 9 14 12 13 13 15 16 17 18 17 14 10 4 7 8 8 4 4 4 2 4 5 6 7 6 4 3 4 5 5 5
19 19 22 16 11 13 13 12 14 10 9 14 13 11 9 16 12 10 14 17 20 16 15 19 13 11 9 13 3 7 10 6 5 5 6 7 7 6 6 6 5 5 5
14 10 12 18 14 11 17 17 15 14 15 16 14 10 12 13 12 10 22 15 14 16 15 19 13 9 7 6 7 8 7 8 8 7 6 7 9 8 8 8 7 6 6
22 15 11 14 12 11 14 17 17 16 17 15 14 14 16 15 17 20 17 19 14 12 19 21 19 8 7 6 4 9 12 10 12 12 10 9 11 11 10 10 9 8 8
23 25 23 19 19 19 19 20 20 19 19 20 15 17 20 21 21 22 23 18 16 19 23 19 15 14 14 16 11 15 13 15 14 15 15 13 12 13 12 12 11 10 10
31 26 26 27 26 22 21 21 21 20 18 19 20 19 18 19 20 22 22 24 24 22 23 25 23 21 24 21 17 19 19 19 17 14 13 14 14 15 15 14 12 12 11
25 26 28 28 26 27 24 25 24 24 23 23 23 23 23 24 26 25 25 25 23 22 23 27 28 26 26 23 23 23 21 21 21 18 16 15 15 16 16 16 14 13 12
23 22 24 24 23 22 24 26 26 25 26 25 25 25 26 26 27 29 29 28 28 28 30 29 28 26 23 20 28 26 23 23 21 21 21 20 18 19 19 19 17 16 14
26 24 22 24 25 24 22 21 22 24 25 27 27 25 28 25 24 26 26 29 32 30 29 30 33 30 27 29 27 32 30 26 22 23 25 23 21 20 22 23 21 19 17
26 26 23 23 23 24 27 26 24 26 24 26 27 26 24 27 30 29 27 27 30 33 34 36 35 32 32 29 34 32 30 29 21 21 24 25 21 19 21 23 24 22 20
28 27 26 24 25 24 24 24 26 26 29 31 33 34 35 34 31 29 31 30 30 31 32 33 36 39 37 35 30 23 22 26 25 24 21 24 23 21 21 21 23 24 23
28 25 25 24 22 23 24 21 23 25 27 29 32 34 36 36 35 35 36 38 40 39 35 33 34 35 38 37 41 37 30 25 25 27 23 25 28 26 25 22 21 22 22
27 28 24 24 22 23 25 25 24 25 27 30 32 33 33 34 34 33 33 35 37 38 37 40 31 32 33 34 29 34 37 32 30 28 32 21 24 28 29 26 27 27 24
26 24 25 24 23 18 20 22 24 28 30 32 34 34 32 31 28 29 31 33 36 39 38 40 38 38 33 37 32 29 29 39 34 25 22 25 18 23 21 23 25 25 26
Wind_Direction
217 182 192 212 243 192 237 331 337 18 296 331 38 19 41 140 359 339 121 118 44 41 34 7 12 10 356 344 341 347 358 40 92 131 161 182 195 203 209 204 197 195 205
181 201 221 196 240 239 164 165 271 260 335 21 5 6 83 83 352 357 342 129 56 23 12 48 63 56 62 286 125 94 62 56 50 92 132 151 163 180 188 185 182 187 198
181 189 180 208 264 275 280 265 352 323 321 303 290 344 328 60 133 324 321 358 353 357 359 21 78 87 122 123 151 116 101 91 84 94 116 139 161 162 162 174 178 187 202
191 179 202 237 223 235 336 312 284 315 298 344 327 286 346 25 318 353 250 72 338 267 282 336 4 64 106 138 114 115 94 91 88 106 117 147 153 152 161 172 178 191 201
187 175 212 243 205 208 296 316 233 354 320 290 3 330 334 325 310 340 5 104 239 247 305 146 3 39 92 155 149 127 127 108 96 102 128 135 151 165 172 180 188 206 236
182 187 258 223 212 247 288 265 282 310 321 301 324 323 347 10 327 273 349 9 62 163 291 184 301 34 9 115 132 128 137 134 112 92 111 149 158 171 187 204 213 226 238
201 188 186 250 226 285 304 241 306 317 282 341 350 353 345 290 328 234 352 231 203 270 75 239 314 252 35 135 120 101 156 139 152 139 115 113 154 196 213 223 230 237 246
199 213 196 223 248 266 223 262 269 284 359 357 338 328 341 294 16 343 2 251 291 309 33 352 218 260 257 191 116 91 115 188 187 185 178 170 162 188 226 241 246 250 253
214 202 222 219 215 221 275 248 247 303 302 346 7 356 49 267 315 319 277 310 337 323 313 283 246 202 347 289 340 240 92 125 231 211 214 229 237 234 245 249 251 254 260
211 219 223 231 235 223 246 271 269 272 284 282 313 310 310 325 334 327 332 324 10 317 327 169 169 336 352 252 265 215 111 94 210 241 230 240 263 267 263 267 268 267 264
219 208 239 256 235 228 241 274 261 259 225 273 293 305 304 305 303 281 293 310 324 301 347 264 346 6 12 185 313 172 89 250 199 232 235 239 267 265 270 279 277 271 267
231 232 227 248 241 231 233 245 271 281 282 266 259 271 301 307 308 304 307 315 323 325 321 314 222 79 50 171 26 328 321 277 251 233 234 232 251 256 278 285 273 264 264
228 243 232 235 249 245 232 224 247 260 272 282 275 275 261 276 294 302 304 314 309 314 319 314 216 215 276 219 209 296 349 278 267 259 246 238 243 251 264 283 278 268 262
233 232 242 232 243 241 242 244 252 262 269 277 288 265 269 262 267 301 297 299 302 309 312 333 271 272 210 204 237 302 308 267 264 280 251 246 244 260 278 295 285 263 251
242 250 224 233 241 253 245 254 257 246 250 264 273 274 284 306 272 272 301 300 306 307 302 307 3 15 214 238 254 272 266 262 283 270 260 256 244 255 267 278 276 269 259
226 217 235 240 244 240 262 256 255 255 257 267 266 273 267 268 266 279 304 293 278 307 286 289 300 321 278 222 220 256 286 274 268 264 262 259 248 252 260 264 266 257 254
238 237 237 233 235 252 248 256 261 266 257 266 266 259 266 268 264 261 267 274 288 264 279 276 286 277 288 293 257 274 283 272 267 270 257 254 248 246 252 253 255 250 250
233 236 245 243 243 244 244 250 257 262 259 263 269 270 268 270 272 275 269 262 265 264 274 275 264 267 274 276 286 283 284 276 271 255 264 258 253 244 248 246 247 245 247
239 237 236 248 250 253 251 251 257 265 265 262 264 270 274 276 276 272 272 271 267 263 271 270 272 269 272 267 265 265 266 267 270 271 261 260 254 248 244 243 244 242 241
240 238 238 246 252 253 256 257 257 261 266 270 269 265 265 268 272 275 274 271 270 268 260 264 265 261 262 262 259 253 248 254 264 266 260 260 256 249 245 242 241 240 238
238 245 246 243 243 252 258 264 261 259 260 267 271 270 272 270 282 283 280 276 273 273 270 267 264 266 264 257 260 252 248 247 253 256 256 254 253 252 245 241 240 240 237
234 238 243 245 249 247 242 246 252 261 266 264 269 272 265 261 267 273 280 279 274 276 275 270 265 259 258 269 269 252 243 243 243 255 252 255 253 245 243 245 242 239 235
235 234 239 240 244 252 257 262 261 257 257 258 263 268 272 275 273 262 265 264 263 264 268 273 271 261 260 257 261 289 256 256 268 276 257 240 242 244 243 239 242 237 230
238 236 236 242 251 252 259 258 264 265 268 269 271 273 275 277 276 274 269 264 262 261 262 262 261 266 269 271 262 263 274 279 272 264 248 220 226 237 243 237 236 234 227
233 231 236 238 242 251 261 269 275 277 278 278 279 280 281 281 283 282 280 277 272 264 258 254 256 269 269 267 268 261 261 262 266 252 220 217 239 229 230 227 226 221 221
226 226 230 248 248 255 267 272 280 285 288 289 285 282 277 277 276 273 271 271 272 272 273 266 256 248 256 261 264 261 262 250 249 260 244 214 201 254 217 217 223 235 233
Height
1575 1574 1576 1578 1580 1585 1587 1584 1582 1583 1582 1579 1578 1576 1579 1580 1575 1573 1571 1571 1575 1575 1573 1570 1569 1569 1570 1571 1573 1575 1575 1576 1577 1577 1577 1578 1579 1581 1582 1583 1585 1587 1588
1574 1575 1575 1577 1578 1582 1584 1588 1586 1584 1582 1580 1578 1578 1580 1579 1575 1573 1574 1573 1578 1578 1576 1573 1570 1569 1570 1570 1571 1572 1573 1574 1575 1576 1576 1577 1578 1580 1581 1583 1584 1586 1587
1575 1575 1577 1576 1579 1581 1583 1584 1584 1582 1582 1582 1581 1579 1579 1579 1578 1577 1577 1579 1577 1577 1577 1576 1573 1571 1570 1571 1571 1571 1572 1573 1574 1575 1576 1577 1578 1579 1580 1582 1585 1586 1587
1575 1576 1577 1578 1578 1581 1581 1582 1583 1583 1582 1582 1580 1580 1581 1580 1578 1577 1579 1581 1580 1577 1579 1580 1577 1572 1572 1572 1573 1574 1573 1573 1573 1574 1575 1577 1578 1579 1580 1582 1584 1585 1586
1574 1576 1578 1578 1580 1582 1582 1582 1582 1582 1581 1580 1580 1579 1578 1578 1575 1578 1579 1580 1583 1577 1577 1579 1578 1574 1572 1573 1573 1573 1575 1575 1574 1574 1574 1575 1577 1579 1580 1581 1582 1584 1584
1575 1576 1577 1579 1581 1579 1581 1582 1581 1582 1580 1580 1580 1578 1574 1572 1575 1576 1578 1579 1577 1575 1573 1573 1576 1576 1575 1573 1572 1572 1573 1574 1575 1575 1574 1574 1576 1578 1580 1581 1581 1582 1583
1575 1576 1579 1580 1580 1581 1578 1580 1581 1581 1579 1577 1577 1576 1573 1572 1574 1574 1575 1574 1573 1574 1575 1578 1581 1580 1579 1575 1571 1570 1573 1574 1574 1575 1576 1575 1575 1576 1578 1579 1580 1581 1581
1575 1576 1578 1579 1581 1582 1582 1582 1580 1580 1575 1579 1580 1578 1575 1574 1574 1576 1575 1573 1572 1573 1579 1581 1578 1582 1582 1579 1577 1571 1569 1573 1575 1575 1576 1576 1576 1575 1577 1578 1579 1579 1579
1573 1574 1576 1578 1580 1581 1579 1581 1580 1581 1581 1581 1581 1580 1579 1581 1578 1576 1576 1576 1574 1575 1575 1572 1579 1574 1582 1583 1581 1578 1570 1569 1574 1575 1576 1576 1576 1575 1575 1577 1577 1577 1577
1571 1573 1575 1576 1579 1581 1580 1581 1581 1580 1580 1582 1583 1582 1580 1579 1577 1576 1576 1575 1575 1575 1576 1578 1574 1569 1573 1576 1579 1579 1573 1570 1572 1576 1576 1576 1575 1574 1574 1575 1575 1576 1576
1569 1571 1573 1574 1577 1578 1577 1579 1580 1578 1580 1582 1581 1579 1579 1578 1578 1576 1574 1575 1576 1576 1579 1579 1575 1573 1569 1564 1577 1578 1572 1570 1571 1575 1575 1576 1575 1574 1573 1573 1574 1574 1574
1567 1569 1570 1571 1573 1575 1576 1577 1577 1578 1579 1580 1579 1579 1579 1578 1576 1576 1573 1571 1572 1574 1578 1580 1576 1573 1569 1563 1573 1574 1571 1569 1570 1573 1574 1575 1575 1574 1572 1572 1572 1572 1572
1565 1566 1568 1568 1570 1572 1574 1576 1577 1578 1578 1577 1577 1577 1577 1577 1575 1574 1572 1569 1569 1569 1571 1576 1574 1573 1572 1573 1573 1572 1569 1567 1571 1572 1572 1573 1573 1572 1571 1570 1571 1571 1571
1564 1565 1566 1567 1569 1569 1571 1572 1573 1575 1576 1576 1576 1577 1575 1574 1573 1573 1573 1571 1568 1567 1566 1567 1569 1568 1568 1570 1567 1567 1567 1569 1570 1570 1570 1571 1571 1570 1569 1568 1569 1569 1569
1562 1561 1563 1565 1566 1568 1569 1570 1571 1572 1573 1573 1574 1574 1572 1573 1572 1571 1571 1570 1568 1567 1567 1565 1565 1563 1562 1564 1564 1564 1566 1568 1568 1568 1568 1568 1568 1568 1567 1568 1567 1567 1567
1558 1561 1562 1563 1563 1565 1566 1567 1568 1569 1570 1571 1571 1571 1571 1570 1570 1570 1569 1568 1567 1566 1566 1565 1566 1567 1564 1562 1562 1563 1563 1564 1565 1565 1565 1564 1564 1564 1565 1566 1566 1566 1566
1555 1557 1559 1560 1562 1563 1565 1565 1565 1566 1566 1566 1567 1567 1568 1567 1566 1566 1565 1564 1563 1563 1561 1560 1562 1563 1562 1560 1560 1560 1559 1561 1561 1561 1561 1560 1560 1561 1563 1564 1564 1564 1564
1551 1553 1554 1556 1558 1559 1561 1561 1561 1562 1562 1563 1563 1563 1563 1564 1563 1562 1561 1560 1561 1559 1559 1556 1557 1558 1557 1557 1555 1554 1556 1554 1556 1557 1556 1557 1557 1558 1560 1561 1561 1562 1562
1544 1547 1549 1550 1552 1553 1555 1556 1557 1557 1558 1559 1559 1559 1559 1559 1557 1557 1556 1555 1555 1555 1554 1554 1552 1553 1553 1552 1552 1550 1550 1550 1549 1552 1553 1553 1553 1554 1555 1557 1558 1559 1559
1539 1541 1544 1545 1547 1549 1550 1550 1551 1552 1552 1553 1553 1554 1554 1554 1553 1551 1550 1550 1549 1549 1549 1549 1548 1548 1548 1547 1546 1545 1545 1544 1544 1546 1548 1549 1549 1549 1551 1552 1554 1555 1556
1534 1537 1539 1540 1542 1543 1543 1544 1545 1547 1547 1546 1547 1547 1547 1547 1547 1546 1545 1543 1543 1544 1544 1544 1543 1543 1542 1543 1539 1537 1535 1534 1536 1540 1541 1542 1544 1544 1545 1547 1549 1550 1552
1529 1531 1532 1534 1537 1538 1536 1538 1539 1541 1541 1541 1540 1540 1541 1541 1541 1540 1539 1538 1537 1537 1536 1537 1536 1536 1536 1536 1535 1531 1527 1529 1525 1532 1535 1536 1538 1539 1540 1543 1544 1546 1547
1524 1526 1527 1529 1529 1531 1533 1529 1534 1534 1535 1535 1534 1534 1533 1533 1533 1532 1530 1529 1528 1529 1530 1529 1526 1527 1528 1529 1530 1525 1525 1523 1521 1527 1529 1531 1534 1535 1535 1537 1539 1541 1542
1518 1521 1522 1525 1527 1525 1526 1528 1528 1528 1528 1528 1527 1526 1524 1523 1523 1522 1520 1518 1518 1518 1519 1519 1518 1518 1519 1521 1522 1523 1523 1521 1522 1521 1521 1524 1527 1531 1532 1532 1533 1535 1537
1512 1514 1517 1519 1520 1520 1522 1522 1522 1522 1521 1519 1518 1516 1514 1512 1511 1510 1508 1507 1505 1505 1508 1509 1510 1510 1511 1511 1512 1514 1516 1519 1517 1516 1504 1508 1515 1522 1524 1525 1526 1529 1531
1507 1508 1509 1513 1515 1516 1516 1517 1516 1514 1512 1510 1507 1505 1505 1504 1503 1501 1498 1497 1494 1494 1495 1495 1497 1500 1500 1502 1505 1507 1508 1508 1511 1511 1515 1515 1510 1523 1524 1523 1525 1528 1529